| time (UTC) | temp F | wind direction | speed knots | gust knots | rain 1hr in | rain 24hr in | rain mn in | humidity % | barometer mb |
| 20260506045016 | 46 | 261 | 9.6 | 14.8 | 0.00 | 0.00 | 0.00 | 73 | 1017.9 |
| 20260506044615 | 46 | 344 | 7.8 | 14.8 | 0.00 | 0.00 | 0.00 | 74 | 1017.9 |
| 20260506044016 | 46 | 288 | 8.7 | 16.5 | 0.00 | 0.00 | 0.00 | 74 | 1017.9 |
| 20260506043515 | 46 | 288 | 10.4 | 16.5 | 0.00 | 0.00 | 0.00 | 73 | 1018.0 |
| 20260506043042 | 47 | 261 | 8.7 | 13.9 | 0.00 | 0.00 | 0.00 | 74 | 1017.8 |
| 20260506042514 | 47 | 308 | 7.0 | 14.8 | 0.00 | 0.00 | 0.00 | 75 | 1017.8 |
| 20260506042016 | 47 | 344 | 5.2 | 14.8 | 0.00 | 0.00 | 0.00 | 75 | 1017.8 |
| 20260506041556 | 47 | 296 | 7.0 | 12.2 | 0.00 | 0.00 | 0.00 | 73 | 1017.5 |
| 20260506041021 | 47 | 293 | 7.0 | 11.3 | 0.00 | 0.00 | 0.00 | 73 | 1017.4 |
| 20260506040515 | 48 | 317 | 7.0 | 13.9 | 0.00 | 0.00 | 0.00 | 72 | 1017.3 |
| 20260506040042 | 48 | 267 | 8.7 | 13.9 | 0.00 | 0.00 | 0.00 | 71 | 1017.1 |
| 20260506035514 | 48 | 347 | 4.3 | 13.9 | 0.00 | 0.00 | 0.00 | 72 | 1017.2 |
| 20260506035014 | 49 | 281 | 6.1 | 14.8 | 0.00 | 0.00 | 0.00 | 71 | 1017.0 |
| 20260506034616 | 49 | 286 | 7.0 | 14.8 | 0.00 | 0.00 | 0.00 | 68 | 1016.9 |
| 20260506034014 | 50 | 276 | 8.7 | 14.8 | 0.00 | 0.00 | 0.00 | 68 | 1016.9 |
| 20260506033515 | 50 | 267 | 7.8 | 13.9 | 0.00 | 0.00 | 0.00 | 66 | 1016.8 |
| 20260506033039 | 51 | 331 | 7.8 | 13.9 | 0.00 | 0.00 | 0.00 | 63 | 1016.7 |
| 20260506032517 | 51 | 288 | 7.0 | 12.2 | 0.00 | 0.00 | 0.00 | 63 | 1016.8 |
| 20260506032014 | 51 | 257 | 7.0 | 15.6 | 0.00 | 0.00 | 0.00 | 65 | 1016.7 |
| 20260506031533 | 52 | 301 | 7.8 | 15.6 | 0.00 | 0.00 | 0.00 | 61 | 1016.6 |
| 20260506031017 | 52 | 266 | 7.0 | 13.9 | 0.00 | 0.00 | 0.00 | 61 | 1016.6 |
| 20260506030520 | 52 | 273 | 7.0 | 13.9 | 0.00 | 0.00 | 0.00 | 60 | 1016.5 |
| 20260506030045 | 53 | 324 | 6.1 | 13.9 | 0.00 | 0.00 | 0.00 | 61 | 1016.5 |
| 20260506025518 | 53 | 306 | 5.2 | 13.9 | 0.00 | 0.00 | 0.00 | 60 | 1016.5 |
| 20260506025018 | 53 | 305 | 7.0 | 13.9 | 0.00 | 0.00 | 0.00 | 61 | 1016.5 |
| 20260506024550 | 53 | 261 | 6.1 | 14.8 | 0.00 | 0.00 | 0.00 | 59 | 1016.4 |
| 20260506024019 | 53 | 316 | 7.8 | 15.6 | 0.00 | 0.00 | 0.00 | 58 | 1016.3 |
| 20260506023516 | 53 | 306 | 10.4 | 15.6 | 0.00 | 0.00 | 0.00 | 56 | 1016.4 |
| 20260506023106 | 54 | 299 | 10.4 | 17.4 | 0.00 | 0.00 | 0.00 | 56 | 1016.2 |
| 20260506022520 | 53 | 303 | 12.2 | 17.4 | 0.00 | 0.00 | 0.00 | 59 | 1016.2 |
| 20260506022016 | 54 | 290 | 12.2 | 17.4 | 0.00 | 0.00 | 0.00 | 55 | 1016.1 |
| 20260506021547 | 54 | 309 | 9.6 | 16.5 | 0.00 | 0.00 | 0.00 | 57 | 1016.2 |
| 20260506021019 | 54 | 301 | 11.3 | 16.5 | 0.00 | 0.00 | 0.00 | 57 | 1016.2 |
| 20260506020514 | 54 | 306 | 10.4 | 17.4 | 0.00 | 0.00 | 0.00 | 57 | 1016.3 |
| 20260506020048 | 54 | 309 | 12.2 | 17.4 | 0.00 | 0.00 | 0.00 | 57 | 1016.3 |
| 20260506015519 | 55 | 310 | 12.2 | 14.8 | 0.00 | 0.00 | 0.00 | 56 | 1016.4 |
| 20260506015017 | 55 | 299 | 11.3 | 14.8 | 0.00 | 0.00 | 0.00 | 56 | 1016.2 |
| 20260506014543 | 55 | 284 | 9.6 | 14.8 | 0.00 | 0.00 | 0.00 | 56 | 1016.2 |
| 20260506014018 | 56 | 332 | 9.6 | 14.8 | 0.00 | 0.00 | 0.00 | 55 | 1016.1 |
| 20260506013518 | 56 | 316 | 9.6 | 14.8 | 0.00 | 0.00 | 0.00 | 54 | 1016.1 |
| 20260506013044 | 56 | 313 | 9.6 | 14.8 | 0.00 | 0.00 | 0.00 | 54 | 1016.0 |
| 20260506012518 | 56 | 292 | 7.8 | 13.9 | 0.00 | 0.00 | 0.00 | 57 | 1016.1 |
| 20260506012015 | 56 | 304 | 6.1 | 13.9 | 0.00 | 0.00 | 0.00 | 57 | 1016.1 |
| 20260506011551 | 56 | 360 | 8.7 | 13.9 | 0.00 | 0.00 | 0.00 | 58 | 1016.1 |
| 20260506011020 | 56 | 311 | 9.6 | 13.9 | 0.00 | 0.00 | 0.00 | 58 | 1016.2 |
| 20260506010520 | 56 | 280 | 6.1 | 13.9 | 0.00 | 0.00 | 0.00 | 59 | 1016.2 |
| 20260506010051 | 55 | 296 | 9.6 | 14.8 | 0.00 | 0.00 | 0.00 | 59 | 1016.3 |
| 20260506005518 | 55 | 315 | 12.2 | 15.6 | 0.00 | 0.00 | 0.00 | 58 | 1016.1 |
| 20260506005018 | 55 | 299 | 10.4 | 18.2 | 0.00 | 0.00 | 0.00 | 59 | 1016.3 |
| 20260506004600 | 56 | 315 | 7.8 | 15.6 | 0.00 | 0.00 | 0.00 | 59 | 1016.1 |
| 20260506004015 | 56 | 310 | 11.3 | 15.6 | 0.00 | 0.00 | 0.00 | 59 | 1016.1 |
| 20260506003517 | 57 | 326 | 11.3 | 17.4 | 0.00 | 0.00 | 0.00 | 58 | 1015.9 |
| 20260506003103 | 57 | 308 | 10.4 | 17.4 | 0.00 | 0.00 | 0.00 | 57 | 1016.1 |
| 20260506002519 | 57 | 302 | 12.2 | 19.1 | 0.00 | 0.00 | 0.00 | 58 | 1016.2 |
| 20260506002016 | 57 | 323 | 13.0 | 19.1 | 0.00 | 0.00 | 0.00 | 57 | 1016.2 |
| 20260506001554 | 57 | 301 | 12.2 | 16.5 | 0.00 | 0.00 | 0.00 | 57 | 1016.2 |
| 20260506001017 | 58 | 291 | 9.6 | 15.6 | 0.00 | 0.00 | 0.00 | 59 | 1016.0 |
| 20260506000516 | 57 | 304 | 11.3 | 18.2 | 0.00 | 0.00 | 0.00 | 61 | 1016.0 |
| 20260506000051 | 58 | 318 | 11.3 | 18.2 | 0.00 | 0.00 | 0.00 | 59 | 1015.8 |
| 20260505235517 | 59 | 308 | 12.2 | 16.5 | 0.00 | 0.00 | 0.00 | 57 | 1015.8 |
| 20260505235017 | 59 | 303 | 7.8 | 16.5 | 0.00 | 0.00 | 0.00 | 57 | 1015.8 |
| 20260505234613 | 59 | 300 | 11.3 | 13.9 | 0.00 | 0.00 | 0.00 | 54 | 1015.8 |
| 20260505234025 | 59 | 320 | 5.2 | 15.6 | 0.00 | 0.00 | 0.00 | 55 | 1015.9 |
| 20260505233520 | 59 | 321 | 7.0 | 15.6 | 0.00 | 0.00 | 0.00 | 59 | 1015.9 |
| 20260505233044 | 59 | 300 | 3.5 | 13.0 | 0.00 | 0.00 | 0.00 | 57 | 1016.0 |
| 20260505232517 | 58 | 336 | 7.0 | 13.9 | 0.00 | 0.00 | 0.00 | 55 | 1016.1 |
| 20260505232019 | 58 | 283 | 5.2 | 13.0 | 0.00 | 0.00 | 0.00 | 56 | 1016.0 |
| 20260505231552 | 58 | 331 | 6.1 | 11.3 | 0.00 | 0.00 | 0.00 | 56 | 1016.0 |
| 20260505231019 | 58 | 303 | 9.6 | 11.3 | 0.00 | 0.00 | 0.00 | 55 | 1015.9 |
| 20260505230519 | 58 | 278 | 7.0 | 11.3 | 0.00 | 0.00 | 0.00 | 56 | 1016.0 |
| 20260505230057 | 58 | 294 | 7.8 | 10.4 | 0.00 | 0.00 | 0.00 | 56 | 1015.7 |
| 20260505225521 | 59 | 297 | 3.5 | 11.3 | 0.00 | 0.00 | 0.00 | 56 | 1015.8 |
| 20260505225019 | 59 | 290 | 3.5 | 11.3 | 0.00 | 0.00 | 0.00 | 56 | 1015.7 |
| 20260505224547 | 59 | 80 | 5.2 | 13.0 | 0.00 | 0.00 | 0.00 | 56 | 1015.8 |
| 20260505224018 | 58 | 295 | 6.1 | 20.9 | 0.00 | 0.00 | 0.00 | 56 | 1016.0 |
| 20260505223519 | 58 | 298 | 8.7 | 20.9 | 0.00 | 0.00 | 0.00 | 57 | 1015.9 |
| 20260505223051 | 57 | 302 | 13.0 | 20.0 | 0.00 | 0.00 | 0.00 | 58 | 1015.9 |
| 20260505222524 | 57 | 317 | 12.2 | 20.0 | 0.00 | 0.00 | 0.00 | 58 | 1016.1 |
| 20260505222020 | 57 | 296 | 13.0 | 20.0 | 0.00 | 0.00 | 0.00 | 58 | 1015.9 |
| 20260505221553 | 57 | 297 | 14.8 | 20.0 | 0.00 | 0.00 | 0.00 | 57 | 1015.9 |
| 20260505221022 | 58 | 298 | 12.2 | 17.4 | 0.00 | 0.00 | 0.00 | 57 | 1015.8 |
| 20260505220519 | 58 | 319 | 8.7 | 17.4 | 0.00 | 0.00 | 0.00 | 55 | 1015.8 |
| 20260505220106 | 58 | 294 | 10.4 | 15.6 | 0.00 | 0.00 | 0.00 | 56 | 1015.6 |
| 20260505215519 | 59 | 300 | 8.7 | 15.6 | 0.00 | 0.00 | 0.00 | 54 | 1015.6 |
| 20260505215019 | 59 | 306 | 7.8 | 14.8 | 0.00 | 0.00 | 0.00 | 56 | 1015.6 |
| 20260505214604 | 59 | 311 | 8.7 | 17.4 | 0.00 | 0.00 | 0.00 | 56 | 1015.7 |
| 20260505214021 | 59 | 350 | 9.6 | 17.4 | 0.00 | 0.00 | 0.00 | 57 | 1015.7 |
| 20260505213524 | 59 | 300 | 8.7 | 15.6 | 0.00 | 0.00 | 0.00 | 57 | 1015.7 |
| 20260505213054 | 59 | 317 | 8.7 | 14.8 | 0.00 | 0.00 | 0.00 | 57 | 1015.6 |
| 20260505212521 | 60 | 304 | 7.0 | 14.8 | 0.00 | 0.00 | 0.00 | 57 | 1015.6 |
| 20260505212020 | 60 | 294 | 6.1 | 11.3 | 0.00 | 0.00 | 0.00 | 57 | 1015.7 |
| 20260505211600 | 60 | 350 | 5.2 | 15.6 | 0.00 | 0.00 | 0.00 | 58 | 1015.6 |
| 20260505211019 | 60 | 242 | 7.0 | 15.6 | 0.00 | 0.00 | 0.00 | 58 | 1015.6 |
| 20260505210519 | 60 | 295 | 7.0 | 12.2 | 0.00 | 0.00 | 0.00 | 58 | 1015.5 |
| 20260505210059 | 59 | 292 | 4.3 | 13.9 | 0.00 | 0.00 | 0.00 | 58 | 1015.6 |
| 20260505205521 | 59 | 309 | 9.6 | 13.9 | 0.00 | 0.00 | 0.00 | 58 | 1015.4 |
| 20260505205017 | 60 | 323 | 7.0 | 14.8 | 0.00 | 0.00 | 0.00 | 58 | 1015.5 |
| 20260505204550 | 59 | 295 | 7.0 | 14.8 | 0.00 | 0.00 | 0.00 | 59 | 1015.3 |
| 20260505204017 | 60 | 300 | 9.6 | 13.9 | 0.00 | 0.00 | 0.00 | 59 | 1015.2 |
| 20260505203517 | 59 | 285 | 7.8 | 13.9 | 0.00 | 0.00 | 0.00 | 59 | 1015.2 |
| 20260505203049 | 59 | 298 | 7.8 | 11.3 | 0.00 | 0.00 | 0.00 | 59 | 1015.2 |
| 20260505202521 | 59 | 298 | 7.0 | 11.3 | 0.00 | 0.00 | 0.00 | 59 | 1015.2 |
| 20260505202019 | 59 | 306 | 6.1 | 10.4 | 0.00 | 0.00 | 0.00 | 60 | 1015.0 |
| 20260505201548 | 59 | 308 | 7.0 | 10.4 | 0.00 | 0.00 | 0.00 | 61 | 1015.1 |
| 20260505201020 | 59 | 284 | 7.0 | 10.4 | 0.00 | 0.00 | 0.00 | 60 | 1015.0 |
| 20260505200703 | 59 | 296 | 7.8 | 9.6 | 0.00 | 0.00 | 0.00 | 60 | 1015.1 |
| 20260505200044 | 59 | 311 | 3.5 | 10.4 | 0.00 | 0.00 | 0.00 | 60 | 1015.0 |
| 20260505195515 | 59 | 300 | 6.1 | 11.3 | 0.00 | 0.00 | 0.00 | 61 | 1015.0 |
| 20260505195016 | 59 | 331 | 6.1 | 11.3 | 0.00 | 0.00 | 0.00 | 61 | 1014.9 |
| 20260505194541 | 59 | 313 | 7.0 | 10.4 | 0.00 | 0.00 | 0.00 | 61 | 1014.9 |
| 20260505194016 | 59 | 298 | 6.1 | 9.6 | 0.00 | 0.00 | 0.00 | 61 | 1014.9 |
| 20260505193513 | 58 | 298 | 7.0 | 12.2 | 0.00 | 0.00 | 0.00 | 63 | 1014.9 |
| 20260505193046 | 58 | 311 | 7.0 | 12.2 | 0.00 | 0.00 | 0.00 | 63 | 1014.9 |
| 20260505192517 | 58 | 294 | 7.0 | 12.2 | 0.00 | 0.00 | 0.00 | 65 | 1014.8 |
| 20260505192014 | 58 | 302 | 6.1 | 13.0 | 0.00 | 0.00 | 0.00 | 65 | 1014.9 |
| 20260505191551 | 57 | 309 | 8.7 | 13.0 | 0.00 | 0.00 | 0.00 | 65 | 1014.8 |
| 20260505191018 | 58 | 284 | 9.6 | 13.9 | 0.00 | 0.00 | 0.00 | 64 | 1014.7 |
| 20260505190518 | 58 | 307 | 8.7 | 13.9 | 0.00 | 0.00 | 0.00 | 66 | 1014.9 |
| 20260505190048 | 58 | 287 | 7.0 | 12.2 | 0.00 | 0.00 | 0.00 | 66 | 1014.7 |
| 20260505185518 | 57 | 313 | 7.0 | 12.2 | 0.00 | 0.00 | 0.00 | 66 | 1014.7 |
| 20260505185017 | 57 | 277 | 9.6 | 12.2 | 0.00 | 0.00 | 0.00 | 65 | 1014.7 |
| 20260505184543 | 57 | 292 | 7.8 | 11.3 | 0.00 | 0.00 | 0.00 | 66 | 1014.6 |
| 20260505184015 | 57 | 315 | 7.0 | 11.3 | 0.00 | 0.00 | 0.00 | 66 | 1014.6 |
| 20260505183513 | 57 | 323 | 7.8 | 11.3 | 0.00 | 0.00 | 0.00 | 66 | 1014.6 |
| 20260505183049 | 57 | 276 | 6.1 | 9.6 | 0.00 | 0.00 | 0.00 | 65 | 1014.5 |
| 20260505182512 | 57 | 300 | 5.2 | 9.6 | 0.00 | 0.00 | 0.00 | 66 | 1014.5 |
| 20260505182016 | 57 | 321 | 6.1 | 9.6 | 0.00 | 0.00 | 0.00 | 66 | 1014.4 |
| 20260505181548 | 57 | 304 | 7.0 | 10.4 | 0.00 | 0.00 | 0.00 | 66 | 1014.3 |
| 20260505181017 | 57 | 331 | 7.0 | 10.4 | 0.00 | 0.00 | 0.00 | 66 | 1014.4 |
| 20260505180516 | 57 | 296 | 5.2 | 7.8 | 0.00 | 0.00 | 0.00 | 67 | 1014.5 |
| 20260505180056 | 57 | 306 | 5.2 | 7.8 | 0.00 | 0.00 | 0.00 | 67 | 1014.4 |
| 20260505175517 | 56 | 286 | 5.2 | 7.8 | 0.00 | 0.00 | 0.00 | 68 | 1014.4 |
| 20260505175019 | 56 | 304 | 4.3 | 8.7 | 0.00 | 0.00 | 0.00 | 70 | 1014.3 |
| 20260505174607 | 55 | 310 | 6.1 | 9.6 | 0.00 | 0.00 | 0.00 | 70 | 1014.2 |
| 20260505174016 | 55 | 309 | 6.1 | 9.6 | 0.00 | 0.00 | 0.00 | 70 | 1014.2 |
| 20260505173514 | 55 | 315 | 7.0 | 9.6 | 0.00 | 0.00 | 0.00 | 71 | 1014.2 |
| 20260505173047 | 55 | 292 | 7.0 | 9.6 | 0.00 | 0.00 | 0.00 | 71 | 1014.2 |
| 20260505172516 | 55 | 295 | 7.0 | 8.7 | 0.00 | 0.00 | 0.00 | 70 | 1014.1 |
| 20260505172015 | 55 | 302 | 6.1 | 7.8 | 0.00 | 0.00 | 0.00 | 71 | 1014.1 |
| 20260505171549 | 55 | 300 | 5.2 | 7.0 | 0.00 | 0.00 | 0.00 | 70 | 1014.0 |
| 20260505171018 | 56 | 291 | 4.3 | 7.0 | 0.00 | 0.00 | 0.00 | 71 | 1014.0 |
| 20260505170517 | 56 | 302 | 4.3 | 7.0 | 0.00 | 0.00 | 0.00 | 69 | 1014.0 |
| 20260505170100 | 56 | 295 | 4.3 | 7.0 | 0.00 | 0.00 | 0.00 | 68 | 1014.0 |
| 20260505165518 | 56 | 302 | 3.5 | 5.2 | 0.00 | 0.00 | 0.00 | 69 | 1014.1 |
| 20260505165016 | 56 | 302 | 4.3 | 6.1 | 0.00 | 0.00 | 0.00 | 70 | 1014.0 |
| 20260505164552 | 56 | 300 | 3.5 | 7.8 | 0.00 | 0.00 | 0.00 | 69 | 1014.1 |
| 20260505164016 | 56 | 287 | 4.3 | 7.8 | 0.00 | 0.00 | 0.00 | 69 | 1014.0 |
| 20260505163517 | 56 | 297 | 5.2 | 7.0 | 0.00 | 0.00 | 0.00 | 68 | 1014.0 |
| 20260505163050 | 56 | 309 | 2.6 | 7.0 | 0.00 | 0.00 | 0.00 | 67 | 1013.9 |
| 20260505162515 | 55 | 309 | 5.2 | 7.0 | 0.00 | 0.00 | 0.00 | 66 | 1013.8 |
| 20260505162017 | 55 | 298 | 4.3 | 7.0 | 0.00 | 0.00 | 0.00 | 67 | 1013.8 |
| 20260505161604 | 56 | 298 | 4.3 | 7.0 | 0.00 | 0.00 | 0.00 | 65 | 1013.6 |
| 20260505161020 | 57 | 302 | 4.3 | 5.2 | 0.00 | 0.00 | 0.00 | 60 | 1013.6 |
| 20260505160517 | 57 | 312 | 3.5 | 5.2 | 0.00 | 0.00 | 0.00 | 59 | 1013.7 |
| 20260505160113 | 57 | 313 | 3.5 | 5.2 | 0.00 | 0.00 | 0.00 | 59 | 1013.5 |
| 20260505153107 | 57 | 315 | 3.5 | 7.0 | 0.00 | 0.00 | 0.00 | 61 | 1013.4 |
| 20260505152520 | 57 | 321 | 3.5 | 7.0 | 0.00 | 0.00 | 0.00 | 61 | 1013.5 |
| 20260505152015 | 57 | 313 | 3.5 | 7.0 | 0.00 | 0.00 | 0.00 | 61 | 1013.4 |
| 20260505151554 | 56 | 311 | 3.5 | 7.8 | 0.00 | 0.00 | 0.00 | 63 | 1013.4 |
| 20260505151020 | 57 | 292 | 4.3 | 9.6 | 0.00 | 0.00 | 0.00 | 64 | 1013.4 |
| 20260505150519 | 56 | 336 | 5.2 | 9.6 | 0.00 | 0.00 | 0.00 | 62 | 1013.3 |
| 20260505140522 | 52 | 134 | 3.5 | 6.1 | 0.00 | 0.00 | 0.00 | 73 | 1012.7 |
| 20260505140109 | 51 | 146 | 4.3 | 6.1 | 0.00 | 0.00 | 0.00 | 74 | 1012.7 |
| 20260505130104 | 49 | 96 | 6.1 | 7.0 | 0.00 | 0.00 | 0.00 | 80 | 1012.2 |
| 20260505125011 | 49 | 111 | 5.2 | 6.1 | 0.00 | 0.00 | 0.00 | 81 | 1012.2 |
| 20260505124526 | 49 | 111 | 2.6 | 6.1 | 0.00 | 0.00 | 0.00 | 81 | 1012.2 |
| 20260505124011 | 49 | 111 | 3.5 | 6.1 | 0.00 | 0.00 | 0.00 | 81 | 1012.2 |
| 20260505123508 | 50 | 123 | 5.2 | 6.1 | 0.00 | 0.00 | 0.00 | 77 | 1012.1 |
| 20260505123041 | 49 | 110 | 5.2 | 7.0 | 0.00 | 0.00 | 0.00 | 80 | 1012.2 |
| 20260505122509 | 49 | 103 | 6.1 | 7.0 | 0.00 | 0.00 | 0.00 | 82 | 1012.2 |
| 20260505122013 | 50 | 132 | 5.2 | 7.0 | 0.00 | 0.00 | 0.00 | 83 | 1012.2 |
| 20260505121528 | 50 | 132 | 4.3 | 6.1 | 0.00 | 0.00 | 0.00 | 81 | 1012.2 |
| 20260505121010 | 50 | 132 | 3.5 | 6.1 | 0.00 | 0.00 | 0.00 | 79 | 1012.2 |
| 20260505120509 | 49 | 132 | 3.5 | 7.0 | 0.00 | 0.00 | 0.00 | 80 | 1012.3 |
| 20260505120029 | 49 | 132 | 5.2 | 7.0 | 0.00 | 0.00 | 0.00 | 81 | 1012.2 |
| 20260505115510 | 49 | 132 | 5.2 | 6.1 | 0.00 | 0.00 | 0.00 | 82 | 1012.3 |
| 20260505115010 | 49 | 132 | 3.5 | 4.3 | 0.00 | 0.00 | 0.00 | 82 | 1012.4 |
| 20260505114526 | 49 | 132 | 3.5 | 4.3 | 0.00 | 0.00 | 0.00 | 81 | 1012.4 |
| 20260505114008 | 50 | 132 | 3.5 | 4.3 | 0.00 | 0.00 | 0.00 | 81 | 1012.3 |
| 20260505113510 | 50 | 132 | 3.5 | 4.3 | 0.00 | 0.00 | 0.00 | 81 | 1012.3 |
| 20260505113034 | 50 | 132 | 3.5 | 4.3 | 0.00 | 0.00 | 0.00 | 79 | 1012.2 |
| 20260505112509 | 50 | 132 | 3.5 | 4.3 | 0.00 | 0.00 | 0.00 | 79 | 1012.2 |
| 20260505112015 | 51 | 132 | 3.5 | 4.3 | 0.00 | 0.00 | 0.00 | 79 | 1012.1 |
| 20260505111548 | 51 | 132 | 3.5 | 4.3 | 0.00 | 0.00 | 0.00 | 77 | 1012.1 |
| 20260505111013 | 51 | 132 | 2.6 | 6.1 | 0.00 | 0.00 | 0.00 | 73 | 1012.1 |
| 20260505110513 | 51 | 132 | 3.5 | 6.1 | 0.00 | 0.00 | 0.00 | 75 | 1012.2 |
| 20260505092510 | 54 | 144 | 2.6 | 6.1 | 0.00 | 0.00 | 0.00 | 70 | 1012.0 |
| 20260505091533 | 54 | 144 | 4.3 | 7.0 | 0.00 | 0.00 | 0.00 | 66 | 1012.0 |
| 20260505091011 | 54 | 101 | 5.2 | 7.0 | 0.00 | 0.00 | 0.00 | 76 | 1012.0 |
| 20260505090511 | 55 | 119 | 5.2 | 6.1 | 0.00 | 0.00 | 0.00 | 74 | 1012.0 |
| 20260505090033 | 54 | 96 | 4.3 | 7.0 | 0.00 | 0.00 | 0.00 | 66 | 1011.9 |
| 20260505085510 | 54 | 103 | 5.2 | 7.0 | 0.00 | 0.00 | 0.00 | 74 | 1012.0 |
| 20260505085015 | 54 | 128 | 4.3 | 7.0 | 0.00 | 0.00 | 0.00 | 71 | 1012.0 |
| 20260505084530 | 53 | 136 | 5.2 | 7.0 | 0.00 | 0.00 | 0.00 | 71 | 1011.9 |
| 20260505084011 | 54 | 117 | 5.2 | 7.0 | 0.00 | 0.00 | 0.00 | 76 | 1012.0 |
| 20260505083508 | 54 | 103 | 6.1 | 7.0 | 0.00 | 0.00 | 0.00 | 75 | 1012.0 |
| 20260505083035 | 54 | 123 | 4.3 | 6.1 | 0.00 | 0.00 | 0.00 | 74 | 1012.0 |
| 20260505082508 | 54 | 123 | 4.3 | 6.1 | 0.00 | 0.00 | 0.00 | 73 | 1012.0 |
| 20260505082012 | 54 | 123 | 4.3 | 6.1 | 0.00 | 0.00 | 0.00 | 69 | 1012.1 |
| 20260505081533 | 54 | 112 | 5.2 | 6.1 | 0.00 | 0.00 | 0.00 | 74 | 1012.1 |
| 20260505081016 | 54 | 129 | 5.2 | 6.1 | 0.00 | 0.00 | 0.00 | 72 | 1012.1 |
| 20260505080513 | 55 | 105 | 4.3 | 7.0 | 0.00 | 0.00 | 0.00 | 73 | 1012.1 |
| 20260505080035 | 55 | 138 | 6.1 | 7.0 | 0.00 | 0.00 | 0.00 | 70 | 1011.9 |
| 20260505075510 | 56 | 108 | 5.2 | 7.8 | 0.00 | 0.00 | 0.00 | 67 | 1012.0 |
| 20260505075016 | 55 | 91 | 6.1 | 7.0 | 0.00 | 0.00 | 0.00 | 66 | 1012.0 |
| 20260505074526 | 56 | 122 | 5.2 | 7.0 | 0.00 | 0.00 | 0.00 | 67 | 1012.1 |
| 20260505074008 | 56 | 118 | 6.1 | 7.8 | 0.00 | 0.00 | 0.00 | 67 | 1012.1 |
| 20260505073508 | 57 | 145 | 6.1 | 7.8 | 0.00 | 0.00 | 0.00 | 65 | 1012.2 |
| 20260505073030 | 57 | 99 | 7.0 | 8.7 | 0.00 | 0.00 | 0.00 | 64 | 1012.2 |
| 20260505072510 | 57 | 142 | 7.0 | 9.6 | 0.00 | 0.00 | 0.00 | 60 | 1012.2 |
| 20260505072011 | 57 | 150 | 7.0 | 9.6 | 0.00 | 0.00 | 0.00 | 64 | 1012.2 |
| 20260505071532 | 57 | 128 | 6.1 | 7.8 | 0.00 | 0.00 | 0.00 | 65 | 1012.1 |
| 20260505071016 | 58 | 138 | 6.1 | 8.7 | 0.00 | 0.00 | 0.00 | 59 | 1012.1 |
| 20260505070510 | 58 | 129 | 7.0 | 8.7 | 0.00 | 0.00 | 0.00 | 62 | 1012.0 |
| 20260505070032 | 59 | 120 | 7.0 | 8.7 | 0.00 | 0.00 | 0.00 | 61 | 1012.1 |
| 20260505065510 | 59 | 144 | 7.0 | 10.4 | 0.00 | 0.00 | 0.00 | 58 | 1012.2 |
| 20260505065012 | 58 | 132 | 8.7 | 10.4 | 0.00 | 0.00 | 0.00 | 63 | 1012.0 |
| 20260505064542 | 59 | 133 | 8.7 | 10.4 | 0.00 | 0.00 | 0.00 | 61 | 1012.0 |
| 20260505064011 | 59 | 117 | 8.7 | 10.4 | 0.00 | 0.00 | 0.00 | 62 | 1011.9 |
| 20260505063509 | 59 | 121 | 8.7 | 9.6 | 0.00 | 0.00 | 0.00 | 62 | 1011.8 |
| 20260505063030 | 59 | 135 | 7.8 | 10.4 | 0.00 | 0.00 | 0.00 | 60 | 1012.0 |
| 20260505062509 | 58 | 135 | 8.7 | 10.4 | 0.00 | 0.00 | 0.00 | 63 | 1011.9 |
| 20260505062012 | 58 | 140 | 8.7 | 10.4 | 0.00 | 0.00 | 0.00 | 63 | 1012.0 |
| 20260505061536 | 58 | 128 | 8.7 | 10.4 | 0.00 | 0.00 | 0.00 | 67 | 1011.9 |
| 20260505061010 | 58 | 99 | 8.7 | 10.4 | 0.00 | 0.00 | 0.00 | 66 | 1012.0 |
| 20260505060510 | 57 | 155 | 7.8 | 10.4 | 0.00 | 0.00 | 0.00 | 67 | 1012.0 |
| 20260505060028 | 56 | 157 | 7.0 | 9.6 | 0.00 | 0.00 | 0.00 | 69 | 1012.1 |
| 20260505055512 | 56 | 132 | 3.5 | 6.1 | 0.00 | 0.00 | 0.00 | 72 | 1012.1 |
| 20260505055012 | 56 | 84 | 3.5 | 6.1 | 0.00 | 0.00 | 0.00 | 70 | 1012.2 |
| 20260505054528 | 56 | 90 | 5.2 | 6.1 | 0.00 | 0.00 | 0.00 | 72 | 1012.1 |
| 20260505054012 | 55 | 133 | 2.6 | 6.1 | 0.00 | 0.00 | 0.00 | 69 | 1012.1 |
| 20260505053515 | 55 | 123 | 4.3 | 6.1 | 0.00 | 0.00 | 0.00 | 71 | 1012.2 |
| 20260505053029 | 55 | 130 | 4.3 | 6.1 | 0.00 | 0.00 | 0.00 | 75 | 1012.1 |
| 20260505052511 | 55 | 115 | 2.6 | 3.5 | 0.00 | 0.00 | 0.00 | 73 | 1012.2 |
| 20260505052010 | 55 | 115 | 2.6 | 5.2 | 0.00 | 0.00 | 0.00 | 73 | 1012.1 |
| 20260505051528 | 55 | 115 | 3.5 | 5.2 | 0.00 | 0.00 | 0.00 | 74 | 1012.1 |
| 20260505051009 | 55 | 115 | 4.3 | 5.2 | 0.00 | 0.00 | 0.00 | 74 | 1012.2 |
| 20260505050513 | 56 | 115 | 3.5 | 5.2 | 0.00 | 0.00 | 0.00 | 70 | 1012.2 |